Weather History for KHOP - January, 2013

Change the Weather History Date:

Wednesday, January 2, 2013

  Actual Average Record
Temperature  
Mean Temperature 28 °F -  
Max Temperature 32 °F 45 °F 71 °F (2006)
Min Temperature 24 °F 29 °F 3 °F (2001)
Degree Days  
Heating Degree Days 37    
Moisture  
Dew Point 24 °F    
Average Humidity 88    
Maximum Humidity 99    
Minimum Humidity 64    
Precipitation  
Precipitation 0.00 in - - ()
Sea Level Pressure  
Sea Level Pressure 30.25 in    
Wind  
Wind Speed 6 mph (North)    
Max Wind Speed 10 mph    
Max Gust Speed -    
Visibility 10 miles    
Events      
Averages and records for this station are not official NWS values.
T = Trace of Precipitation, MM = Missing Value Source: NWS Daily Summary

Daily Weather History Graph

Daily Weather History Graph

Search for Another Location

Airport or City:

Trip Planner

Search our weather history database for the weather conditions in past years. The results will help you decide how hot, cold, wet, or windy it might be!

Date:

Astronomy

Jan. 02, 2013 Rise Set
Actual Time 7:02 AM CST 4:46 PM CST
Civil Twilight 6:33 AM CST 5:14 PM CST
Nautical Twilight 6:01 AM CST 5:46 PM CST
Astronomical Twilight 5:30 AM CST 6:18 PM CST
Moon 10:08 PM CST (1/2) 9:52 AM CST (1/2)
Length of Visible Light 10h 40m
Length of Day
9h 43m
Waning Gibbous, 75% of the Moon is Illuminated
Jan 2
Waning Gibbous
Jan 4
Last Quarter
Jan 11
New
Jan 18
First Quarter
Jan 26
Full

Hourly Weather History & Observations

Time (CST) Temp. Windchill Dew Point Humidity Pressure Visibility Wind Dir Wind Speed Gust Speed Precip Events Conditions
12:55 AM 27.3 °F 17.7 °F 25.3 °F 92% 30.19 in 10.0 mi North 10.4 mph - N/A   Overcast
1:55 AM 26.2 °F 17.8 °F 24.1 °F 92% 30.22 in 10.0 mi North 8.1 mph - N/A   Overcast
2:55 AM 25.9 °F 18.2 °F 23.7 °F 92% 30.22 in 10.0 mi NNW 6.9 mph - N/A   Overcast
3:55 AM 25.2 °F 17.3 °F 23.2 °F 92% 30.23 in 10.0 mi North 6.9 mph - N/A   Overcast
4:09 AM 24.8 °F 16.1 °F 23.0 °F 93% 30.22 in 10.0 mi NNW 8.1 mph - N/A   Overcast
4:55 AM 24.6 °F 17.7 °F 22.6 °F 92% 30.24 in 10.0 mi Variable 5.8 mph - N/A   Overcast
5:55 AM 24.6 °F 17.7 °F 23.0 °F 94% 30.23 in 10.0 mi North 5.8 mph - N/A   Overcast
6:39 AM 24.8 °F 17.9 °F 23.0 °F 93% 30.26 in 10.0 mi North 5.8 mph - N/A   Overcast
6:55 AM 24.8 °F 19.1 °F 22.5 °F 91% 30.26 in 10.0 mi Variable 4.6 mph - N/A   Overcast
7:16 AM 24.8 °F 17.9 °F 23.0 °F 93% 30.26 in 10.0 mi North 5.8 mph - N/A   Overcast
7:34 AM 24.8 °F 19.1 °F 23.0 °F 93% 30.26 in 10.0 mi North 4.6 mph - N/A   Overcast
7:40 AM 24.8 °F 19.1 °F 23.0 °F 93% 30.27 in 10.0 mi NNW 4.6 mph - N/A   Overcast
7:47 AM 24.8 °F 17.9 °F 23.0 °F 93% 30.27 in 10.0 mi North 5.8 mph - N/A   Overcast
7:55 AM 24.8 °F 20.5 °F 22.8 °F 92% 30.27 in 10.0 mi Variable 3.5 mph - N/A   Overcast
7:58 AM 24.8 °F 19.1 °F 23.0 °F 93% 30.27 in 10.0 mi North 4.6 mph - N/A   Overcast
8:55 AM 25.0 °F 18.1 °F 23.0 °F 92% 30.28 in 10.0 mi North 5.8 mph - N/A   Overcast
9:55 AM 25.3 °F 19.7 °F 23.2 °F 91% 30.29 in 10.0 mi NNW 4.6 mph - N/A   Overcast
10:55 AM 26.4 °F 22.4 °F 23.5 °F 89% 30.30 in 10.0 mi North 3.5 mph - N/A   Overcast
11:15 AM 26.6 °F 19.1 °F 24.8 °F 93% 30.28 in 10.0 mi North 6.9 mph - N/A   Overcast
11:55 AM 27.0 °F 21.6 °F 23.7 °F 88% 30.26 in 10.0 mi North 4.6 mph - N/A   Overcast
12:20 PM 28.4 °F 24.6 °F 23.0 °F 80% 30.25 in 10.0 mi North 3.5 mph - N/A   Scattered Clouds
12:55 PM 30.6 °F 25.8 °F 24.1 °F 77% 30.25 in 10.0 mi NNE 4.6 mph - N/A   Clear
1:55 PM 31.8 °F - 23.9 °F 73% 30.22 in 10.0 mi Calm Calm - N/A   Partly Cloudy
2:55 PM 32.4 °F 29.1 °F 21.4 °F 64% 30.22 in 10.0 mi NNE 3.5 mph - N/A   Clear
3:55 PM 32.7 °F 28.3 °F 22.6 °F 66% 30.22 in 10.0 mi North 4.6 mph - N/A   Clear
4:55 PM 32.2 °F - 22.5 °F 67% 30.24 in 10.0 mi Calm Calm - N/A   Scattered Clouds
5:55 PM 31.6 °F - 24.3 °F 74% 30.25 in 10.0 mi Calm Calm - N/A   Partly Cloudy
6:55 PM 30.7 °F - 25.7 °F 82% 30.27 in 10.0 mi Calm Calm - N/A   Clear
7:55 PM 29.5 °F - 25.3 °F 85% 30.27 in 10.0 mi Calm Calm - N/A   Clear
8:55 PM 28.4 °F - 25.2 °F 88% 30.27 in 10.0 mi Calm Calm - N/A   Clear
9:55 PM 27.3 °F - 26.4 °F 96% 30.27 in 10.0 mi Calm Calm - N/A   Clear
10:55 PM 26.4 °F - 26.2 °F 99% 30.27 in 9.0 mi Calm Calm - N/A   Clear
11:55 PM 25.9 °F - 25.7 °F 99% 30.27 in 10.0 mi Calm Calm - N/A   Clear